Time,TemperatureF,DewpointF,PressureIn,WindDirection,WindDirectionDegrees,WindSpeedMPH,WindSpeedGustMPH,Humidity,HourlyPrecipIn,Conditions,Clouds,dailyrainin,SoftwareType,DateUTC
2013-04-24 00:02:00,35.8,25.2,30.16,SW,225,0.0,0.0,65,0.00,,---,0.00,VWS V14.01,2013-04-24 07:02:00,
2013-04-24 00:08:00,35.8,25.2,30.16,SW,225,0.0,0.0,65,0.00,,---,0.00,VWS V14.01,2013-04-24 07:08:00,
2013-04-24 00:13:00,35.6,25.4,30.16,SW,225,0.0,0.0,66,0.00,,---,0.00,VWS V14.01,2013-04-24 07:13:00,
2013-04-24 00:18:00,35.4,25.6,30.16,SW,225,0.0,0.0,67,0.00,,---,0.00,VWS V14.01,2013-04-24 07:18:00,
2013-04-24 00:23:00,35.2,25.4,30.16,SW,225,0.0,0.0,67,0.00,,---,0.00,VWS V14.01,2013-04-24 07:23:00,
2013-04-24 00:28:00,35.1,25.2,30.16,SW,225,0.0,0.0,67,0.00,,---,0.00,VWS V14.01,2013-04-24 07:28:00,
2013-04-24 00:33:00,35.1,25.6,30.16,SW,225,0.0,0.0,68,0.00,,---,0.00,VWS V14.01,2013-04-24 07:33:00,
2013-04-24 00:38:00,34.9,25.4,30.16,SW,225,0.0,0.0,68,0.00,,---,0.00,VWS V14.01,2013-04-24 07:38:00,
2013-04-24 00:43:00,34.9,25.8,30.16,SW,225,0.0,0.0,69,0.00,,---,0.00,VWS V14.01,2013-04-24 07:43:00,
2013-04-24 00:48:00,34.7,25.6,30.16,SW,225,0.0,0.0,69,0.00,,---,0.00,VWS V14.01,2013-04-24 07:48:00,
2013-04-24 00:53:00,34.5,25.8,30.16,SW,225,0.0,0.0,70,0.00,,---,0.00,VWS V14.01,2013-04-24 07:53:00,
2013-04-24 00:58:00,34.3,25.6,30.16,SW,225,0.0,0.0,70,0.00,,---,0.00,VWS V14.01,2013-04-24 07:58:00,
2013-04-24 01:03:00,34.2,25.4,30.16,SW,225,0.0,0.0,70,0.00,,---,0.00,VWS V14.01,2013-04-24 08:03:00,
2013-04-24 01:08:00,34.2,25.4,30.16,SW,225,0.0,0.0,70,0.00,,---,0.00,VWS V14.01,2013-04-24 08:08:00,
2013-04-24 01:13:00,34.2,25.4,30.16,SW,225,0.0,0.0,70,0.00,,---,0.00,VWS V14.01,2013-04-24 08:13:00,
2013-04-24 01:19:00,34.0,25.2,30.16,SW,225,0.0,0.0,70,0.00,,---,0.00,VWS V14.01,2013-04-24 08:19:00,
2013-04-24 01:24:00,33.8,25.4,30.16,SW,225,0.0,0.0,71,0.00,,---,0.00,VWS V14.01,2013-04-24 08:24:00,
2013-04-24 01:29:00,33.6,25.6,30.16,SW,225,0.0,0.0,72,0.00,,---,0.00,VWS V14.01,2013-04-24 08:29:00,
2013-04-24 01:34:00,33.6,25.6,30.16,SW,225,0.0,0.0,72,0.00,,---,0.00,VWS V14.01,2013-04-24 08:34:00,
2013-04-24 01:39:00,33.4,25.4,30.16,SW,225,0.0,0.0,72,0.00,,---,0.00,VWS V14.01,2013-04-24 08:39:00,
2013-04-24 01:44:00,33.4,25.4,30.16,SW,225,0.0,0.0,72,0.00,,---,0.00,VWS V14.01,2013-04-24 08:44:00,
2013-04-24 01:49:00,33.3,25.2,30.16,SW,225,0.0,0.0,72,0.00,,---,0.00,VWS V14.01,2013-04-24 08:49:00,
2013-04-24 01:54:00,33.1,25.0,30.16,SW,225,0.0,0.0,72,0.00,,---,0.00,VWS V14.01,2013-04-24 08:54:00,
2013-04-24 01:59:00,32.9,25.2,30.16,SW,225,0.0,0.0,73,0.00,,---,0.00,VWS V14.01,2013-04-24 08:59:00,
2013-04-24 02:04:00,32.7,25.0,30.16,SW,225,0.0,0.0,73,0.00,,---,0.00,VWS V14.01,2013-04-24 09:04:00,
2013-04-24 02:09:00,32.7,25.4,30.16,SW,225,0.0,0.0,74,0.00,,---,0.00,VWS V14.01,2013-04-24 09:09:00,
2013-04-24 02:14:00,32.5,25.2,30.16,SW,225,0.0,0.0,74,0.00,,---,0.00,VWS V14.01,2013-04-24 09:14:00,
2013-04-24 02:19:00,32.5,25.5,30.16,SW,225,0.0,0.0,75,0.00,,---,0.00,VWS V14.01,2013-04-24 09:19:00,
2013-04-24 02:25:00,32.5,25.5,30.16,SW,225,0.0,0.0,75,0.00,,---,0.00,VWS V14.01,2013-04-24 09:25:00,
2013-04-24 02:30:00,32.4,25.3,30.16,SW,225,0.0,0.0,75,0.00,,---,0.00,VWS V14.01,2013-04-24 09:30:00,
2013-04-24 02:35:00,32.4,25.3,30.16,SW,225,0.0,0.0,75,0.00,,---,0.00,VWS V14.01,2013-04-24 09:35:00,
2013-04-24 02:40:00,32.2,25.5,30.16,SW,225,0.0,0.0,76,0.00,,---,0.00,VWS V14.01,2013-04-24 09:40:00,
2013-04-24 02:45:00,32.2,25.5,30.16,SW,225,0.0,0.0,76,0.00,,---,0.00,VWS V14.01,2013-04-24 09:45:00,
2013-04-24 02:50:00,32.0,25.3,30.16,SW,225,0.0,0.0,76,0.00,,---,0.00,VWS V14.01,2013-04-24 09:50:00,
2013-04-24 02:55:00,32.0,25.3,30.16,SW,225,0.0,0.0,76,0.00,,---,0.00,VWS V14.01,2013-04-24 09:55:00,
2013-04-24 03:00:00,32.0,25.3,30.16,SW,225,0.0,0.0,76,0.00,,---,0.00,VWS V14.01,2013-04-24 10:00:00,
2013-04-24 03:05:00,32.0,25.3,30.16,SW,225,0.0,0.0,76,0.00,,---,0.00,VWS V14.01,2013-04-24 10:05:00,
2013-04-24 03:10:00,32.0,25.3,30.16,SW,225,0.0,0.0,76,0.00,,---,0.00,VWS V14.01,2013-04-24 10:10:00,
2013-04-24 03:16:00,31.8,25.1,30.16,SW,225,0.0,0.0,76,0.00,,---,0.00,VWS V14.01,2013-04-24 10:16:00,
2013-04-24 03:21:00,31.8,25.4,30.16,SW,225,0.0,0.0,77,0.00,,---,0.00,VWS V14.01,2013-04-24 10:21:00,
2013-04-24 03:26:00,31.6,25.3,30.16,SW,225,0.0,0.0,77,0.00,,---,0.00,VWS V14.01,2013-04-24 10:26:00,
2013-04-24 03:31:00,31.5,25.1,30.16,SW,225,0.0,0.0,77,0.00,,---,0.00,VWS V14.01,2013-04-24 10:31:00,
2013-04-24 03:36:00,31.5,25.1,30.16,SW,225,0.0,0.0,77,0.00,,---,0.00,VWS V14.01,2013-04-24 10:36:00,
2013-04-24 03:41:00,31.5,25.4,30.16,SW,225,0.0,0.0,78,0.00,,---,0.00,VWS V14.01,2013-04-24 10:41:00,
2013-04-24 03:46:00,31.3,25.2,30.16,SW,225,0.0,0.0,78,0.00,,---,0.00,VWS V14.01,2013-04-24 10:46:00,
2013-04-24 03:51:00,31.3,25.2,30.16,SW,225,0.0,0.0,78,0.00,,---,0.00,VWS V14.01,2013-04-24 10:51:00,
2013-04-24 03:56:00,31.1,25.0,30.16,SW,225,0.0,0.0,78,0.00,,---,0.00,VWS V14.01,2013-04-24 10:56:00,
2013-04-24 04:01:00,31.1,25.0,30.16,SW,225,0.0,0.0,78,0.00,,---,0.00,VWS V14.01,2013-04-24 11:01:00,
2013-04-24 04:06:00,31.1,25.4,30.16,SW,225,0.0,0.0,79,0.00,,---,0.00,VWS V14.01,2013-04-24 11:06:00,
2013-04-24 04:11:00,30.9,25.2,30.16,SW,225,0.0,0.0,79,0.00,,---,0.00,VWS V14.01,2013-04-24 11:11:00,
2013-04-24 04:17:00,30.9,25.2,30.16,SW,225,0.0,0.0,79,0.00,,---,0.00,VWS V14.01,2013-04-24 11:17:00,
2013-04-24 04:22:00,30.9,25.2,30.16,SW,225,0.0,0.0,79,0.00,,---,0.00,VWS V14.01,2013-04-24 11:22:00,
2013-04-24 04:27:00,30.7,25.0,30.16,SW,225,0.0,0.0,79,0.00,,---,0.00,VWS V14.01,2013-04-24 11:27:00,
2013-04-24 04:32:00,30.6,24.8,30.16,SW,225,0.0,0.0,79,0.00,,---,0.00,VWS V14.01,2013-04-24 11:32:00,
2013-04-24 04:37:00,30.6,24.8,30.16,SW,225,0.0,0.0,79,0.00,,---,0.00,VWS V14.01,2013-04-24 11:37:00,
2013-04-24 04:42:00,30.6,25.1,30.16,SW,225,0.0,0.0,80,0.00,,---,0.00,VWS V14.01,2013-04-24 11:42:00,
2013-04-24 04:47:00,30.6,25.1,30.16,SW,225,0.0,0.0,80,0.00,,---,0.00,VWS V14.01,2013-04-24 11:47:00,
2013-04-24 04:52:00,30.4,25.0,30.16,SW,225,0.0,0.0,80,0.00,,---,0.00,VWS V14.01,2013-04-24 11:52:00,
2013-04-24 04:57:00,30.4,25.0,30.16,SW,225,0.0,0.0,80,0.00,,---,0.00,VWS V14.01,2013-04-24 11:57:00,
2013-04-24 05:02:00,30.2,24.8,30.16,SW,225,0.0,0.0,80,0.00,,---,0.00,VWS V14.01,2013-04-24 12:02:00,
2013-04-24 05:07:00,30.2,24.8,30.16,SW,225,0.0,0.0,80,0.00,,---,0.00,VWS V14.01,2013-04-24 12:07:00,
2013-04-24 05:13:00,30.2,24.8,30.16,SW,225,0.0,0.0,80,0.00,,---,0.00,VWS V14.01,2013-04-24 12:13:00,
2013-04-24 05:18:00,30.2,24.8,30.16,SW,225,0.0,0.0,80,0.00,,---,0.00,VWS V14.01,2013-04-24 12:18:00,
2013-04-24 05:23:00,30.2,25.1,30.16,SW,225,0.0,0.0,81,0.00,,---,0.00,VWS V14.01,2013-04-24 12:23:00,
2013-04-24 05:28:00,30.2,25.1,30.16,SW,225,0.0,0.0,81,0.00,,---,0.00,VWS V14.01,2013-04-24 12:28:00,
2013-04-24 05:33:00,30.0,24.9,30.16,SW,225,0.0,0.0,81,0.00,,---,0.00,VWS V14.01,2013-04-24 12:33:00,
2013-04-24 05:38:00,30.0,25.2,30.16,SW,225,0.0,0.0,82,0.00,,---,0.00,VWS V14.01,2013-04-24 12:38:00,
2013-04-24 05:43:00,30.0,25.2,30.16,SW,225,0.0,0.0,82,0.00,,---,0.00,VWS V14.01,2013-04-24 12:43:00,
2013-04-24 05:48:00,29.8,25.0,30.16,SW,225,0.0,0.0,82,0.00,,---,0.00,VWS V14.01,2013-04-24 12:48:00,
2013-04-24 05:54:00,29.8,25.0,30.16,SW,225,0.0,0.0,82,0.00,,---,0.00,VWS V14.01,2013-04-24 12:54:00,
2013-04-24 05:59:00,29.8,25.0,30.16,SW,225,0.0,0.0,82,0.00,,---,0.00,VWS V14.01,2013-04-24 12:59:00,
2013-04-24 06:04:00,29.8,25.0,30.16,SW,225,0.0,0.0,82,0.00,,---,0.00,VWS V14.01,2013-04-24 13:04:00,
2013-04-24 06:09:00,29.8,25.0,30.16,SW,225,0.0,0.0,82,0.00,,---,0.00,VWS V14.01,2013-04-24 13:09:00,
2013-04-24 06:15:00,29.8,25.0,30.16,SW,225,0.0,0.0,82,0.00,,---,0.00,VWS V14.01,2013-04-24 13:15:00,
2013-04-24 06:20:00,29.8,25.0,30.16,SW,225,0.0,0.0,82,0.00,,---,0.00,VWS V14.01,2013-04-24 13:20:00,
2013-04-24 06:25:00,29.8,25.3,30.16,SW,225,0.0,0.0,83,0.00,,---,0.00,VWS V14.01,2013-04-24 13:25:00,
2013-04-24 06:30:00,29.8,25.3,30.16,SW,225,0.0,0.0,83,0.00,,---,0.00,VWS V14.01,2013-04-24 13:30:00,
2013-04-24 06:35:00,29.8,25.3,30.16,SW,225,0.0,0.0,83,0.00,,---,0.00,VWS V14.01,2013-04-24 13:35:00,
2013-04-24 06:40:00,29.8,25.3,30.16,SW,225,0.0,0.0,83,0.00,,---,0.00,VWS V14.01,2013-04-24 13:40:00,
2013-04-24 06:45:00,29.8,25.6,30.16,SW,225,0.0,0.0,84,0.00,,---,0.00,VWS V14.01,2013-04-24 13:45:00,
2013-04-24 06:50:00,29.8,25.6,30.16,SW,225,0.0,0.0,84,0.00,,---,0.00,VWS V14.01,2013-04-24 13:50:00,
2013-04-24 06:55:00,29.8,25.6,30.16,SW,225,0.0,0.0,84,0.00,,---,0.00,VWS V14.01,2013-04-24 13:55:00,
2013-04-24 07:00:00,29.8,25.6,30.16,SW,225,0.0,0.0,84,0.00,,---,0.00,VWS V14.01,2013-04-24 14:00:00,
2013-04-24 07:05:00,30.0,25.8,30.16,SW,225,0.0,0.0,84,0.00,,---,0.00,VWS V14.01,2013-04-24 14:05:00,
2013-04-24 07:11:00,30.0,25.8,30.16,SW,225,0.0,0.0,84,0.00,,---,0.00,VWS V14.01,2013-04-24 14:11:00,
2013-04-24 07:16:00,30.2,26.0,30.16,SW,225,0.0,0.0,84,0.00,,---,0.00,VWS V14.01,2013-04-24 14:16:00,
2013-04-24 07:21:00,30.2,26.0,30.16,SW,225,0.0,0.0,84,0.00,,---,0.00,VWS V14.01,2013-04-24 14:21:00,
2013-04-24 07:27:00,30.2,26.0,30.16,SW,225,0.0,0.0,84,0.00,,---,0.00,VWS V14.01,2013-04-24 14:27:00,
2013-04-24 07:32:00,30.4,26.1,30.16,SW,225,0.0,0.0,84,0.00,,---,0.00,VWS V14.01,2013-04-24 14:32:00,
2013-04-24 07:37:00,30.6,26.3,30.16,SW,225,0.0,0.0,84,0.00,,---,0.00,VWS V14.01,2013-04-24 14:37:00,
2013-04-24 07:42:00,30.7,26.5,30.16,SW,225,0.0,0.0,84,0.00,,---,0.00,VWS V14.01,2013-04-24 14:42:00,
2013-04-24 07:47:00,30.9,26.7,30.16,SW,225,0.0,0.0,84,0.00,,---,0.00,VWS V14.01,2013-04-24 14:47:00,
2013-04-24 07:52:00,31.1,27.1,30.16,SW,225,0.0,0.0,85,0.00,,---,0.00,VWS V14.01,2013-04-24 14:52:00,
2013-04-24 07:57:00,31.5,27.5,30.16,SW,225,0.0,0.0,85,0.00,,---,0.00,VWS V14.01,2013-04-24 14:57:00,
2013-04-24 08:02:00,31.8,27.8,30.16,SW,225,0.0,0.0,85,0.00,,---,0.00,VWS V14.01,2013-04-24 15:02:00,
2013-04-24 08:09:00,32.4,28.4,30.16,SW,225,0.0,0.0,85,0.00,,---,0.00,VWS V14.01,2013-04-24 15:09:00,
2013-04-24 08:14:00,32.9,29.2,30.16,SW,225,0.0,0.0,86,0.00,,---,0.00,VWS V14.01,2013-04-24 15:14:00,
2013-04-24 08:19:00,33.4,29.7,30.16,SW,225,0.0,0.0,86,0.00,,---,0.00,VWS V14.01,2013-04-24 15:19:00,
2013-04-24 08:25:00,33.8,30.1,30.16,SW,225,0.0,0.0,86,0.00,,---,0.00,VWS V14.01,2013-04-24 15:25:00,
2013-04-24 08:30:00,34.3,30.6,30.16,SW,225,0.0,0.0,86,0.00,,---,0.00,VWS V14.01,2013-04-24 15:30:00,
2013-04-24 08:35:00,34.7,31.0,30.16,SW,225,0.0,0.0,86,0.00,,---,0.00,VWS V14.01,2013-04-24 15:35:00,
2013-04-24 08:40:00,35.1,31.3,30.16,SW,225,0.0,0.0,86,0.00,,---,0.00,VWS V14.01,2013-04-24 15:40:00,
2013-04-24 08:45:00,35.6,31.5,30.16,SW,225,0.0,0.0,85,0.00,,---,0.00,VWS V14.01,2013-04-24 15:45:00,
2013-04-24 08:50:00,36.0,31.9,30.13,SW,225,0.0,0.0,85,0.00,,---,0.00,VWS V14.01,2013-04-24 15:50:00,
2013-04-24 08:55:00,36.5,32.4,30.13,SW,225,0.0,0.0,85,0.00,,---,0.00,VWS V14.01,2013-04-24 15:55:00,
2013-04-24 09:00:00,37.0,33.0,30.13,SW,225,0.0,0.0,85,0.00,,---,0.00,VWS V14.01,2013-04-24 16:00:00,
2013-04-24 09:06:00,37.6,33.2,30.13,SW,225,0.0,0.0,84,0.00,,---,0.00,VWS V14.01,2013-04-24 16:06:00,
2013-04-24 09:11:00,38.3,33.6,30.13,SW,225,0.0,0.0,83,0.00,,---,0.00,VWS V14.01,2013-04-24 16:11:00,
2013-04-24 09:16:00,38.7,33.7,30.13,SW,225,0.0,0.0,82,0.00,,---,0.00,VWS V14.01,2013-04-24 16:16:00,
2013-04-24 09:21:00,39.2,33.9,30.13,SW,224,0.0,0.0,81,0.00,,---,0.00,VWS V14.01,2013-04-24 16:21:00,
2013-04-24 09:26:00,39.9,34.3,30.13,SW,225,0.0,0.0,80,0.00,,---,0.00,VWS V14.01,2013-04-24 16:26:00,
2013-04-24 09:31:00,40.5,34.5,30.13,SW,224,0.0,0.0,79,0.00,,---,0.00,VWS V14.01,2013-04-24 16:31:00,
2013-04-24 09:36:00,41.0,34.7,30.13,SW,225,0.0,0.0,78,0.00,,---,0.00,VWS V14.01,2013-04-24 16:36:00,
2013-04-24 09:41:00,41.5,34.9,30.13,SW,224,0.0,0.0,77,0.00,,---,0.00,VWS V14.01,2013-04-24 16:41:00,
2013-04-24 09:46:00,42.1,35.1,30.13,SW,224,0.0,0.0,76,0.00,,---,0.00,VWS V14.01,2013-04-24 16:46:00,
2013-04-24 09:51:00,42.6,34.9,30.13,SW,224,0.0,0.0,74,0.00,,---,0.00,VWS V14.01,2013-04-24 16:51:00,
2013-04-24 09:57:00,43.3,35.3,30.13,SW,224,0.0,0.0,73,0.00,,---,0.00,VWS V14.01,2013-04-24 16:57:00,
2013-04-24 10:02:00,44.1,35.6,30.13,SW,224,0.0,0.0,72,0.00,,---,0.00,VWS V14.01,2013-04-24 17:02:00,
2013-04-24 10:07:00,44.6,35.8,30.10,SW,224,0.0,0.0,71,0.00,,---,0.00,VWS V14.01,2013-04-24 17:07:00,
2013-04-24 10:13:00,45.3,36.1,30.10,SW,225,0.0,0.0,70,0.00,,---,0.00,VWS V14.01,2013-04-24 17:13:00,
2013-04-24 10:18:00,46.0,36.1,30.10,SW,225,0.0,0.0,68,0.00,,---,0.00,VWS V14.01,2013-04-24 17:18:00,
2013-04-24 10:23:00,46.6,35.8,30.10,SW,225,0.0,0.0,66,0.00,,---,0.00,VWS V14.01,2013-04-24 17:23:00,
2013-04-24 10:28:00,47.1,36.0,30.10,SW,224,0.0,0.0,65,0.00,,---,0.00,VWS V14.01,2013-04-24 17:28:00,
2013-04-24 10:33:00,47.8,35.9,30.10,SW,224,0.0,0.0,63,0.00,,---,0.00,VWS V14.01,2013-04-24 17:33:00,
2013-04-24 10:38:00,48.7,35.5,30.10,SW,224,0.0,0.0,60,0.00,,---,0.00,VWS V14.01,2013-04-24 17:38:00,
2013-04-24 10:43:00,49.6,34.6,30.10,SW,222,0.0,0.0,56,0.00,,---,0.00,VWS V14.01,2013-04-24 17:43:00,
2013-04-24 10:48:00,50.2,34.2,30.10,SW,222,0.0,0.0,54,0.00,,---,0.00,VWS V14.01,2013-04-24 17:48:00,
2013-04-24 10:53:00,50.7,33.3,30.10,SW,229,0.0,0.0,51,0.00,,---,0.00,VWS V14.01,2013-04-24 17:53:00,
2013-04-24 10:58:00,51.8,32.2,30.10,SW,228,0.0,0.0,47,0.00,,---,0.00,VWS V14.01,2013-04-24 17:58:00,
2013-04-24 11:03:00,53.1,32.8,30.10,SSW,213,0.0,0.0,46,0.00,,---,0.00,VWS V14.01,2013-04-24 18:03:00,
2013-04-24 11:08:00,53.6,33.3,30.10,SSW,198,0.0,3.1,46,0.00,,---,0.00,VWS V14.01,2013-04-24 18:08:00,
2013-04-24 11:13:00,54.0,33.1,30.10,SSW,198,0.0,2.7,45,0.00,,---,0.00,VWS V14.01,2013-04-24 18:13:00,
2013-04-24 11:19:00,54.7,33.8,30.07,SSW,205,0.0,2.7,45,0.00,,---,0.00,VWS V14.01,2013-04-24 18:19:00,
2013-04-24 11:24:00,55.8,33.6,30.07,SSW,208,0.0,0.0,43,0.00,,---,0.00,VWS V14.01,2013-04-24 18:24:00,
2013-04-24 11:29:00,56.7,32.6,30.07,WNW,298,0.0,0.0,40,0.00,,---,0.00,VWS V14.01,2013-04-24 18:29:00,
2013-04-24 11:34:00,57.4,33.3,30.07,SW,224,0.0,0.0,40,0.00,,---,0.00,VWS V14.01,2013-04-24 18:34:00,
2013-04-24 11:39:00,58.1,32.7,30.07,SSW,199,0.0,4.0,38,0.00,,---,0.00,VWS V14.01,2013-04-24 18:39:00,
2013-04-24 11:45:00,58.8,33.3,30.07,WSW,238,0.0,0.0,38,0.00,,---,0.00,VWS V14.01,2013-04-24 18:45:00,
2013-04-24 11:50:00,59.4,33.1,30.07,WSW,239,0.0,6.3,37,0.00,,---,0.00,VWS V14.01,2013-04-24 18:50:00,
2013-04-24 11:55:00,59.7,32.7,30.07,South,190,3.6,4.9,36,0.00,,---,0.00,VWS V14.01,2013-04-24 18:55:00,
2013-04-24 12:00:00,60.1,33.1,30.07,SSW,193,0.0,0.0,36,0.00,,---,0.00,VWS V14.01,2013-04-24 19:00:00,
2013-04-24 12:05:00,60.3,32.5,30.07,SSE,164,2.7,4.5,35,0.00,,---,0.00,VWS V14.01,2013-04-24 19:05:00,
2013-04-24 12:10:00,61.0,33.2,30.07,SE,126,0.0,0.0,35,0.00,,---,0.00,VWS V14.01,2013-04-24 19:10:00,
2013-04-24 12:15:00,61.9,34.0,30.07,ENE,66,0.0,0.0,35,0.00,,---,0.00,VWS V14.01,2013-04-24 19:15:00,
2013-04-24 12:20:00,62.2,33.5,30.04,WSW,246,0.0,0.0,34,0.00,,---,0.00,VWS V14.01,2013-04-24 19:20:00,
2013-04-24 12:25:00,62.4,33.7,30.04,South,177,0.0,4.0,34,0.00,,---,0.00,VWS V14.01,2013-04-24 19:25:00,
2013-04-24 12:30:00,62.6,33.9,30.04,WSW,240,0.0,0.0,34,0.00,,---,0.00,VWS V14.01,2013-04-24 19:30:00,
2013-04-24 12:35:00,62.8,34.0,30.04,SW,217,0.0,5.8,34,0.00,,---,0.00,VWS V14.01,2013-04-24 19:35:00,
2013-04-24 12:40:00,63.5,33.1,30.04,WNW,291,0.0,0.0,32,0.00,,---,0.00,VWS V14.01,2013-04-24 19:40:00,
2013-04-24 12:45:00,63.0,31.9,30.04,SSW,211,2.7,5.4,31,0.00,,---,0.00,VWS V14.01,2013-04-24 19:45:00,
2013-04-24 12:50:00,62.8,30.9,30.04,South,181,2.7,5.4,30,0.00,,---,0.00,VWS V14.01,2013-04-24 19:50:00,
2013-04-24 12:56:00,63.1,32.0,30.04,SSW,195,0.0,5.4,31,0.00,,---,0.00,VWS V14.01,2013-04-24 19:56:00,
2013-04-24 13:01:00,63.7,31.7,30.04,WNW,289,0.0,2.2,30,0.00,,---,0.00,VWS V14.01,2013-04-24 20:01:00,
2013-04-24 13:06:00,64.2,32.2,30.04,ENE,73,4.0,4.0,30,0.00,,---,0.00,VWS V14.01,2013-04-24 20:06:00,
2013-04-24 13:11:00,64.8,32.6,30.04,ESE,119,3.6,3.6,30,0.00,,---,0.00,VWS V14.01,2013-04-24 20:11:00,
2013-04-24 13:16:00,64.9,32.0,30.04,SSW,206,0.0,4.0,29,0.00,,---,0.00,VWS V14.01,2013-04-24 20:16:00,
2013-04-24 13:21:00,65.3,31.4,30.01,ENE,68,0.0,0.0,28,0.00,,---,0.00,VWS V14.01,2013-04-24 20:21:00,
2013-04-24 13:26:00,65.8,32.7,30.01,ESE,112,0.0,5.8,29,0.00,,---,0.00,VWS V14.01,2013-04-24 20:26:00,
2013-04-24 13:31:00,66.4,31.4,30.01,East,80,3.1,4.0,27,0.00,,---,0.00,VWS V14.01,2013-04-24 20:31:00,
2013-04-24 13:36:00,66.2,31.3,30.01,ESE,109,6.3,6.3,27,0.00,,---,0.00,VWS V14.01,2013-04-24 20:36:00,
2013-04-24 13:41:00,66.2,31.3,30.01,WSW,258,0.0,0.0,27,0.00,,---,0.00,VWS V14.01,2013-04-24 20:41:00,
2013-04-24 13:46:00,66.4,30.5,30.01,SW,230,8.1,8.1,26,0.00,,---,0.00,VWS V14.01,2013-04-24 20:46:00,
2013-04-24 13:51:00,66.2,29.4,30.01,SW,234,4.9,8.7,25,0.00,,---,0.00,VWS V14.01,2013-04-24 20:51:00,
2013-04-24 13:57:00,66.2,28.4,30.01,SSW,206,0.0,8.7,24,0.00,,---,0.00,VWS V14.01,2013-04-24 20:57:00,
2013-04-24 14:02:00,66.4,29.5,30.01,East,87,2.7,3.6,25,0.00,,---,0.00,VWS V14.01,2013-04-24 21:02:00,
2013-04-24 14:07:00,66.9,30.0,29.98,WNW,303,2.2,4.0,25,0.00,,---,0.00,VWS V14.01,2013-04-24 21:07:00,
2013-04-24 14:12:00,67.6,29.6,29.98,WSW,246,3.6,7.6,24,0.00,,---,0.00,VWS V14.01,2013-04-24 21:12:00,
2013-04-24 14:17:00,67.8,29.7,29.98,WNW,298,2.2,8.1,24,0.00,,---,0.00,VWS V14.01,2013-04-24 21:17:00,
2013-04-24 14:23:00,68.0,29.9,29.98,SSE,151,8.1,8.1,24,0.00,,---,0.00,VWS V14.01,2013-04-24 21:23:00,
2013-04-24 14:28:00,68.0,28.9,29.98,South,184,3.1,8.3,23,0.00,,---,0.00,VWS V14.01,2013-04-24 21:28:00,
2013-04-24 14:33:00,67.5,29.4,29.98,WSW,244,4.9,6.3,24,0.00,,---,0.00,VWS V14.01,2013-04-24 21:33:00,
2013-04-24 14:38:00,67.3,29.3,29.98,SW,217,0.0,7.6,24,0.00,,---,0.00,VWS V14.01,2013-04-24 21:38:00,
2013-04-24 14:43:00,67.1,29.1,29.98,SW,231,0.0,3.6,24,0.00,,---,0.00,VWS V14.01,2013-04-24 21:43:00,
2013-04-24 14:48:00,67.1,29.1,29.98,WSW,246,8.1,9.2,24,0.00,,---,0.00,VWS V14.01,2013-04-24 21:48:00,
2013-04-24 14:53:00,67.1,29.1,29.98,SW,233,3.1,8.7,24,0.00,,---,0.00,VWS V14.01,2013-04-24 21:53:00,
2013-04-24 14:58:00,67.1,29.1,29.98,WSW,250,0.0,8.7,24,0.00,,---,0.00,VWS V14.01,2013-04-24 21:58:00,
2013-04-24 15:03:00,67.1,29.1,29.98,SSW,204,2.7,6.3,24,0.00,,---,0.00,VWS V14.01,2013-04-24 22:03:00,
2013-04-24 15:08:00,67.1,29.1,29.98,WSW,244,4.0,10.5,24,0.00,,---,0.00,VWS V14.01,2013-04-24 22:08:00,
2013-04-24 15:14:00,66.9,29.0,29.98,ESE,103,0.0,7.2,24,0.00,,---,0.00,VWS V14.01,2013-04-24 22:14:00,
2013-04-24 15:19:00,66.4,28.5,29.98,ESE,112,3.1,11.0,24,0.00,,---,0.00,VWS V14.01,2013-04-24 22:19:00,
2013-04-24 15:24:00,66.0,28.2,29.98,SW,214,3.6,3.6,24,0.00,,---,0.00,VWS V14.01,2013-04-24 22:24:00,
2013-04-24 15:29:00,66.0,28.2,29.98,WSW,241,2.2,7.6,24,0.00,,---,0.00,VWS V14.01,2013-04-24 22:29:00,
2013-04-24 15:34:00,65.7,27.9,29.95,SW,219,4.0,8.1,24,0.00,,---,0.00,VWS V14.01,2013-04-24 22:34:00,
2013-04-24 15:39:00,65.5,27.8,29.95,West,272,0.0,8.1,24,0.00,,---,0.00,VWS V14.01,2013-04-24 22:39:00,
2013-04-24 15:44:00,65.3,27.6,29.95,WSW,258,0.0,7.6,24,0.00,,---,0.00,VWS V14.01,2013-04-24 22:44:00,
2013-04-24 15:49:00,65.3,27.6,29.95,SSW,209,0.0,9.6,24,0.00,,---,0.00,VWS V14.01,2013-04-24 22:49:00,
2013-04-24 15:54:00,65.1,27.5,29.95,WSW,245,10.1,10.1,24,0.00,,---,0.00,VWS V14.01,2013-04-24 22:54:00,
2013-04-24 15:59:00,64.8,27.2,29.95,SW,235,5.8,10.1,24,0.00,,---,0.00,VWS V14.01,2013-04-24 22:59:00,
2013-04-24 16:04:00,64.6,27.0,29.95,South,185,0.0,6.3,24,0.00,,---,0.00,VWS V14.01,2013-04-24 23:04:00,
2013-04-24 16:09:00,64.6,28.0,29.95,SW,220,3.6,7.6,25,0.00,,---,0.00,VWS V14.01,2013-04-24 23:09:00,
2013-04-24 16:15:00,64.8,28.1,29.95,South,191,8.7,8.7,25,0.00,,---,0.00,VWS V14.01,2013-04-24 23:15:00,
2013-04-24 16:20:00,64.4,27.8,29.95,SW,234,0.0,8.7,25,0.00,,---,0.00,VWS V14.01,2013-04-24 23:20:00,
2013-04-24 16:25:00,64.6,28.0,29.95,SE,139,5.4,5.4,25,0.00,,---,0.00,VWS V14.01,2013-04-24 23:25:00,
2013-04-24 16:30:00,64.9,28.3,29.95,SSW,193,0.0,6.3,25,0.00,,---,0.00,VWS V14.01,2013-04-24 23:30:00,
2013-04-24 16:35:00,65.1,27.5,29.95,SSW,213,0.0,8.3,24,0.00,,---,0.00,VWS V14.01,2013-04-24 23:35:00,
2013-04-24 16:40:00,65.3,28.6,29.95,SSE,147,5.8,5.8,25,0.00,,---,0.00,VWS V14.01,2013-04-24 23:40:00,
2013-04-24 16:45:00,64.9,28.3,29.95,WSW,241,4.9,5.8,25,0.00,,---,0.00,VWS V14.01,2013-04-24 23:45:00,
2013-04-24 16:50:00,64.8,28.1,29.92,SE,133,3.6,6.3,25,0.00,,---,0.00,VWS V14.01,2013-04-24 23:50:00,
2013-04-24 16:55:00,64.4,26.9,29.92,SW,229,0.0,6.3,24,0.00,,---,0.00,VWS V14.01,2013-04-24 23:55:00,
2013-04-24 17:00:00,63.9,27.4,29.92,NW,321,0.0,0.0,25,0.00,,---,0.00,VWS V14.01,2013-04-25 00:00:00,
2013-04-24 17:05:00,63.5,27.1,29.92,East,84,0.0,4.0,25,0.00,,---,0.00,VWS V14.01,2013-04-25 00:05:00,
2013-04-24 17:10:00,63.5,27.1,29.92,South,190,6.3,7.6,25,0.00,,---,0.00,VWS V14.01,2013-04-25 00:10:00,
2013-04-24 17:16:00,63.1,26.8,29.92,SSE,154,4.0,7.6,25,0.00,,---,0.00,VWS V14.01,2013-04-25 00:16:00,
2013-04-24 17:21:00,63.0,26.6,29.92,WSW,243,4.0,4.0,25,0.00,,---,0.00,VWS V14.01,2013-04-25 00:21:00,
2013-04-24 17:26:00,63.0,27.6,29.92,SW,217,2.2,5.8,26,0.00,,---,0.00,VWS V14.01,2013-04-25 00:26:00,
2013-04-24 17:32:00,62.8,27.4,29.92,ESE,102,3.1,3.1,26,0.00,,---,0.00,VWS V14.01,2013-04-25 00:32:00,
2013-04-24 17:37:00,62.6,27.3,29.92,SE,134,0.0,6.3,26,0.00,,---,0.00,VWS V14.01,2013-04-25 00:37:00,
2013-04-24 17:42:00,62.4,27.1,29.92,SW,229,0.0,0.0,26,0.00,,---,0.00,VWS V14.01,2013-04-25 00:42:00,
2013-04-24 17:47:00,62.2,27.9,29.92,SSW,212,0.0,4.0,27,0.00,,---,0.00,VWS V14.01,2013-04-25 00:47:00,
2013-04-24 17:52:00,62.1,27.7,29.92,WNW,286,4.0,5.8,27,0.00,,---,0.00,VWS V14.01,2013-04-25 00:52:00,
2013-04-24 17:57:00,61.7,27.4,29.92,South,181,0.0,5.8,27,0.00,,---,0.00,VWS V14.01,2013-04-25 00:57:00,
2013-04-24 18:02:00,61.3,27.1,29.92,SE,135,3.6,4.9,27,0.00,,---,0.00,VWS V14.01,2013-04-25 01:02:00,
2013-04-24 18:07:00,61.2,26.9,29.92,WNW,303,0.0,4.9,27,0.00,,---,0.00,VWS V14.01,2013-04-25 01:07:00,
2013-04-24 18:12:00,61.0,27.7,29.92,SSW,210,0.0,3.1,28,0.00,,---,0.00,VWS V14.01,2013-04-25 01:12:00,
2013-04-24 18:17:00,61.0,27.7,29.92,SW,223,0.0,3.6,28,0.00,,---,0.00,VWS V14.01,2013-04-25 01:17:00,
2013-04-24 18:22:00,60.8,27.5,29.92,SSW,195,3.6,4.0,28,0.00,,---,0.00,VWS V14.01,2013-04-25 01:22:00,
2013-04-24 18:27:00,60.6,28.2,29.92,SE,140,3.1,4.9,29,0.00,,---,0.00,VWS V14.01,2013-04-25 01:27:00,
2013-04-24 18:33:00,60.4,28.1,29.92,ENE,71,0.0,0.0,29,0.00,,---,0.00,VWS V14.01,2013-04-25 01:33:00,
2013-04-24 18:38:00,60.1,27.7,29.89,SSW,200,4.9,4.9,29,0.00,,---,0.00,VWS V14.01,2013-04-25 01:38:00,
2013-04-24 18:43:00,59.9,27.6,29.89,South,191,4.0,5.4,29,0.00,,---,0.00,VWS V14.01,2013-04-25 01:43:00,
2013-04-24 18:48:00,59.7,28.3,29.89,North,7,0.0,5.4,30,0.00,,---,0.00,VWS V14.01,2013-04-25 01:48:00,
2013-04-24 18:53:00,59.4,27.9,29.92,North,353,0.0,3.6,30,0.00,,---,0.00,VWS V14.01,2013-04-25 01:53:00,
2013-04-24 18:58:00,59.2,28.6,29.92,South,172,0.0,3.6,31,0.00,,---,0.00,VWS V14.01,2013-04-25 01:58:00,
2013-04-24 19:03:00,58.8,29.0,29.92,NNW,327,0.0,4.9,32,0.00,,---,0.00,VWS V14.01,2013-04-25 02:03:00,
2013-04-24 19:08:00,58.6,28.9,29.92,SSW,213,2.2,4.9,32,0.00,,---,0.00,VWS V14.01,2013-04-25 02:08:00,
2013-04-24 19:13:00,58.3,29.3,29.92,West,262,0.0,4.0,33,0.00,,---,0.00,VWS V14.01,2013-04-25 02:13:00,
2013-04-24 19:18:00,58.1,29.2,29.92,WSW,241,0.0,4.9,33,0.00,,---,0.00,VWS V14.01,2013-04-25 02:18:00,
2013-04-24 19:23:00,57.9,29.0,29.92,West,266,0.0,0.0,33,0.00,,---,0.00,VWS V14.01,2013-04-25 02:23:00,
2013-04-24 19:28:00,57.7,29.6,29.92,West,266,0.0,0.0,34,0.00,,---,0.00,VWS V14.01,2013-04-25 02:28:00,
2013-04-24 19:34:00,57.6,29.4,29.92,SE,143,0.0,3.6,34,0.00,,---,0.00,VWS V14.01,2013-04-25 02:34:00,
2013-04-24 19:39:00,57.0,29.7,29.92,SE,142,0.0,3.6,35,0.00,,---,0.00,VWS V14.01,2013-04-25 02:39:00,
2013-04-24 19:44:00,56.7,30.0,29.92,SE,142,0.0,0.0,36,0.00,,---,0.00,VWS V14.01,2013-04-25 02:44:00,
2013-04-24 19:49:00,56.3,29.7,29.89,SE,141,0.0,2.7,36,0.00,,---,0.00,VWS V14.01,2013-04-25 02:49:00,
2013-04-24 19:54:00,55.8,29.2,29.89,SE,141,0.0,0.0,36,0.00,,---,0.00,VWS V14.01,2013-04-25 02:54:00,
2013-04-24 19:59:00,55.2,29.4,29.89,SE,141,0.0,2.7,37,0.00,,---,0.00,VWS V14.01,2013-04-25 02:59:00,
2013-04-24 20:05:00,54.9,29.8,29.89,SE,141,0.0,2.2,38,0.00,,---,0.00,VWS V14.01,2013-04-25 03:05:00,
2013-04-24 20:10:00,54.1,29.8,29.89,SE,141,0.0,2.2,39,0.00,,---,0.00,VWS V14.01,2013-04-25 03:10:00,
2013-04-24 20:15:00,53.8,29.4,29.89,SE,141,0.0,0.0,39,0.00,,---,0.00,VWS V14.01,2013-04-25 03:15:00,
2013-04-24 20:20:00,53.2,29.6,29.89,SE,141,0.0,0.0,40,0.00,,---,0.00,VWS V14.01,2013-04-25 03:20:00,
2013-04-24 20:25:00,52.9,29.8,29.89,SE,140,0.0,0.0,41,0.00,,---,0.00,VWS V14.01,2013-04-25 03:25:00,
2013-04-24 20:30:00,52.3,29.4,29.89,SE,140,0.0,0.0,41,0.00,,---,0.00,VWS V14.01,2013-04-25 03:30:00,
2013-04-24 20:35:00,52.0,29.0,29.89,SE,140,0.0,0.0,41,0.00,,---,0.00,VWS V14.01,2013-04-25 03:35:00,
2013-04-24 20:40:00,51.6,29.3,29.89,SE,140,0.0,0.0,42,0.00,,---,0.00,VWS V14.01,2013-04-25 03:40:00,
2013-04-24 20:45:00,51.4,29.1,29.89,SE,140,0.0,0.0,42,0.00,,---,0.00,VWS V14.01,2013-04-25 03:45:00,
2013-04-24 20:50:00,50.9,29.2,29.89,SE,140,0.0,0.0,43,0.00,,---,0.00,VWS V14.01,2013-04-25 03:50:00,
2013-04-24 20:56:00,50.5,29.5,29.89,SE,140,0.0,0.0,44,0.00,,---,0.00,VWS V14.01,2013-04-25 03:56:00,
2013-04-24 21:01:00,50.2,29.1,29.89,SE,140,0.0,0.0,44,0.00,,---,0.00,VWS V14.01,2013-04-25 04:01:00,
2013-04-24 21:02:00,50.2,29.1,29.89,SE,140,3.1,3.1,44,0.00,,---,0.00,VWS V14.01,2013-04-25 04:02:00,
2013-04-24 21:07:00,50.2,29.1,29.92,ESE,109,0.0,5.4,44,0.00,,---,0.00,VWS V14.01,2013-04-25 04:07:00,
2013-04-24 21:13:00,50.2,28.6,29.92,ESE,113,5.8,7.6,43,0.00,,---,0.00,VWS V14.01,2013-04-25 04:13:00,
2013-04-24 21:18:00,51.1,29.4,29.92,East,98,2.7,8.3,43,0.00,,---,0.00,VWS V14.01,2013-04-25 04:18:00,
2013-04-24 21:23:00,51.4,29.1,29.89,SE,128,0.0,3.6,42,0.00,,---,0.00,VWS V14.01,2013-04-25 04:23:00,
2013-04-24 21:28:00,51.6,29.3,29.89,SE,128,0.0,3.6,42,0.00,,---,0.00,VWS V14.01,2013-04-25 04:28:00,
2013-04-24 21:33:00,51.4,29.7,29.89,North,1,0.0,2.7,43,0.00,,---,0.00,VWS V14.01,2013-04-25 04:33:00,
2013-04-24 21:38:00,51.1,30.0,29.89,North,349,0.0,2.7,44,0.00,,---,0.00,VWS V14.01,2013-04-25 04:38:00,
2013-04-24 21:44:00,50.4,29.3,29.89,NNW,346,0.0,0.0,44,0.00,,---,0.00,VWS V14.01,2013-04-25 04:44:00,
2013-04-24 21:49:00,50.0,29.0,29.89,NNW,348,0.0,0.0,44,0.00,,---,0.00,VWS V14.01,2013-04-25 04:49:00,
2013-04-24 21:54:00,49.6,29.7,29.89,NNW,348,0.0,0.0,46,0.00,,---,0.00,VWS V14.01,2013-04-25 04:54:00,
2013-04-24 21:59:00,49.1,29.8,29.89,NNW,348,0.0,0.0,47,0.00,,---,0.00,VWS V14.01,2013-04-25 04:59:00,
2013-04-24 22:04:00,48.7,29.4,29.89,North,353,0.0,4.0,47,0.00,,---,0.00,VWS V14.01,2013-04-25 05:04:00,
2013-04-24 22:09:00,48.6,29.3,29.89,East,83,0.0,4.0,47,0.00,,---,0.00,VWS V14.01,2013-04-25 05:09:00,
2013-04-24 22:15:00,48.7,29.4,29.89,ESE,106,0.0,6.3,47,0.00,,---,0.00,VWS V14.01,2013-04-25 05:15:00,
2013-04-24 22:20:00,48.7,29.4,29.89,ESE,105,2.7,6.3,47,0.00,,---,0.00,VWS V14.01,2013-04-25 05:20:00,
2013-04-24 22:25:00,48.6,29.3,29.89,SSE,152,3.6,4.0,47,0.00,,---,0.00,VWS V14.01,2013-04-25 05:25:00,
2013-04-24 22:30:00,48.9,28.5,29.89,ESE,109,3.6,4.0,45,0.00,,---,0.00,VWS V14.01,2013-04-25 05:30:00,
2013-04-24 22:35:00,49.5,28.5,29.89,SE,127,0.0,5.8,44,0.00,,---,0.00,VWS V14.01,2013-04-25 05:35:00,
2013-04-24 22:40:00,49.8,28.2,29.89,East,101,0.0,2.7,43,0.00,,---,0.00,VWS V14.01,2013-04-25 05:40:00,
2013-04-24 22:45:00,49.8,28.2,29.89,ENE,76,3.6,6.3,43,0.00,,---,0.00,VWS V14.01,2013-04-25 05:45:00,
2013-04-24 22:50:00,49.8,28.2,29.89,NE,34,0.0,0.0,43,0.00,,---,0.00,VWS V14.01,2013-04-25 05:50:00,
2013-04-24 22:55:00,49.6,28.6,29.89,North,357,2.7,4.9,44,0.00,,---,0.00,VWS V14.01,2013-04-25 05:55:00,
2013-04-24 23:00:00,49.1,28.7,29.89,SE,126,0.0,0.0,45,0.00,,---,0.00,VWS V14.01,2013-04-25 06:00:00,
2013-04-24 23:06:00,48.7,28.9,29.89,NNE,12,0.0,0.0,46,0.00,,---,0.00,VWS V14.01,2013-04-25 06:06:00,
2013-04-24 23:11:00,48.6,28.2,29.89,SE,127,3.6,3.6,45,0.00,,---,0.00,VWS V14.01,2013-04-25 06:11:00,
2013-04-24 23:16:00,48.9,27.4,29.89,SE,137,3.6,5.8,43,0.00,,---,0.00,VWS V14.01,2013-04-25 06:16:00,
2013-04-24 23:21:00,49.1,27.6,29.89,ESE,110,4.0,4.9,43,0.00,,---,0.00,VWS V14.01,2013-04-25 06:21:00,
2013-04-24 23:26:00,49.3,27.8,29.89,NNE,28,0.0,5.8,43,0.00,,---,0.00,VWS V14.01,2013-04-25 06:26:00,
2013-04-24 23:31:00,49.3,27.8,29.89,ESE,114,0.0,0.0,43,0.00,,---,0.00,VWS V14.01,2013-04-25 06:31:00,
2013-04-24 23:36:00,48.9,28.0,29.89,East,86,0.0,3.6,44,0.00,,---,0.00,VWS V14.01,2013-04-25 06:36:00,
2013-04-24 23:41:00,48.2,27.9,29.89,East,91,0.0,4.0,45,0.00,,---,0.00,VWS V14.01,2013-04-25 06:41:00,
2013-04-24 23:46:00,47.3,28.1,29.89,NNE,31,0.0,4.0,47,0.00,,---,0.00,VWS V14.01,2013-04-25 06:46:00,
2013-04-24 23:51:00,46.8,28.1,29.89,NE,34,0.0,0.0,48,0.00,,---,0.00,VWS V14.01,2013-04-25 06:51:00,
2013-04-24 23:57:00,46.2,28.1,29.89,NE,52,0.0,0.0,49,0.00,,---,0.00,VWS V14.01,2013-04-25 06:57:00,